AirNav   Duncan Aviation - Near you to keep you flying
 
 1139 users online  

3J6 Davis Field Airport
Folkston, Georgia, USA

GOING TO FOLKSTON?


FAA INFORMATION EFFECTIVE 15 JULY 2021

Location

FAA Identifier: 3J6
Lat/Long: 30-47-46.9000N 082-01-41.4000W
30-47.781667N 082-01.690000W
30.7963611,-82.0281667
(estimated)
Elevation: 68 ft. / 21 m (estimated)
Variation: 03W (1985)
From city: 3 miles SW of FOLKSTON, GA
Time zone: UTC -4 (UTC -5 during Standard Time)
Zip code: 31537

Airport Operations

Airport use: Open to the public
Activation date: 11/1962
Control tower: no
ARTCC: JACKSONVILLE CENTER
FSS: MACON FLIGHT SERVICE STATION
NOTAMs facility: MCN (NOTAM-D service available)
Attendance: UNATNDD
Wind indicator: lighted
Segmented circle: yes
Lights: MIRL RWY 01/19 PRESET LOW INTST DUSK-2030; AFT 2030 ACTVT - CTAF.
Beacon: white-green (lighted land airport)
Operates sunset to sunrise.

Airport Communications

CTAF: 122.9

Nearby radio navigation aids

VOR radial/distance  VOR name  Freq  Var
TAYr060/32.2TAYLOR VORTAC112.9003W
SSIr247/33.6BRUNSWICK VORTAC109.8004W
VQQr352/(35.7)CECIL VOR117.9003W
CRGr319/38.3CRAIG VORTAC114.5003W
AYSr136/39.3WAYCROSS VORTAC110.2000E

Airport Services

Parking: tiedowns
Airframe service: NONE
Powerplant service: NONE
Bottled oxygen: NONE
Bulk oxygen: NONE

Runway Information

Runway 1/19

Dimensions: 2500 x 50 ft. / 762 x 15 m
Surface: asphalt, in good condition
Weight bearing capacity: 
Single wheel: 12.5
Runway edge lights: medium intensity
RUNWAY 1  RUNWAY 19
Latitude: 30-47.575833N30-47.988333N
Longitude: 082-01.694833W082-01.685000W
Traffic pattern: rightleft
Markings: basic, in good conditionbasic, in good condition
Obstructions: 42 ft. trees, 201 ft. from runway, 100 ft. left and right of centerline
+50 FT TREES 90 FT LEFT & RIGHT AT THLD
19 ft. trees, 580 ft. from runway, 100 ft. left of centerline, 20:1 slope to clear

Airport Ownership and Management from official FAA records

Ownership: Publicly-owned
Owner: CHARLTON COUNTY
68 KINGSLAND DR. STE B
FOLKSTON, GA 31537
Phone 912-496-2549
Manager: HAMPTON RAULERSON
68 KINSLAND DR., STE B
FOLKSTON, GA 31537
Phone (912) 886-3260

Airport Operational Statistics

Aircraft based on the field: 8
Single engine airplanes: 8
    
Aircraft operations: avg 61/week *
62% local general aviation
31% transient general aviation
6% military
* for 12-month period ending 31 December 2019

Additional Remarks

LGTD 272 FT AGL TOWER 1000 FT WEST.
FOR CD CTC JACKSONVILLE APCH AT 904-741-0284.

Instrument Procedures

There are no published instrument procedures at 3J6.

Some nearby airports with instrument procedures:

KJAX - Jacksonville International Airport (25 nm SE)
4J1 - Brantley County Airport (25 nm N)
KFHB - Fernandina Beach Municipal Airport (31 nm E)
KAYS - Waycross-Ware County Airport (33 nm NW)
KHEG - Herlong Recreational Airport (33 nm S)
 
Loc | Ops | Rwys | IFR | FBO | Links
Com | Nav | Svcs | Stats | Notes
Area around 3J6 (Davis Field Airport)
 
Road maps at: MapQuest Bing Google
 
Aerial photo
WARNING: Photo may not be current or correct
Aerial photo of 3J6 (Davis Field Airport)
Do you have a better or more recent aerial photo of Davis Field Airport that you would like to share? If so, please send us your photo.

 
Sectional chart

 
Airport distance calculator
Flying to Davis Field Airport? Find the distance to fly.

From to 3J6

Sunrise and sunset
Times for 05-Aug-2021
 Local
(UTC-4)
 Zulu
(UTC)
Morning civil twilight06:2310:23
Sunrise06:4910:49
Sunset20:1900:19
Evening civil twilight20:4500:45

Current date and time
Zulu (UTC)  05-Aug-2021 23:59:01
Local (UTC-4)  05-Aug-2021 19:59:01
 
METAR
KJAX 
25nm SE 
052331Z 05003KT 10SM BKN006 OVC022 24/24 A3004 RMK AO2 LTG DSNT E AND SE TSE15 T02440239 $
KFHB 
31nm E 
052335Z AUTO 01003KT 5SM TSRA BKN008 OVC016 25/ A3006 RMK AO2 LTG DSNT ALQDS P0028 T0248////
KHEG 
33nm S 
052355Z AUTO 00000KT 6SM VCTS BR BKN050 OVC065 26/24 A3006 RMK AO2 LTG DSNT NE AND E AND W
KAYS 
33nm NW 
052335Z AUTO 06007KT 1 1/4SM +RA OVC020 22/21 A3007 RMK AO2 T02160210
KVQQ 
36nm S 
052350Z 00000KT 10SM SCT025 26/25 A3004
KCRG 
38nm SE 
052353Z 08003KT 10SM VCTS FEW031 OVC050 25/24 A3005 RMK AO2 LTG DSNT NE RAE21 TSE14B24E45 SLP176 P0012 60110 T02500239 10294 20244 51002
KSSI 
39nm NE 
052353Z AUTO 01008KT 10SM SCT038 SCT065 OVC075 24/22 A3006 RMK AO2 LTG DSNT S SLP182 60008 T02440222 10256 20239 53007
KNIP 
39nm SE 
052353Z 00000KT 10SM FEW020 BKN045 BKN100 BKN250 26/25 A3005 RMK AO2 TSE08 SLP171 T2 SET 60024 T02560250 10283 20250 53007
KBQK 
40nm NE 
052335Z AUTO 36004KT 10SM SCT029 BKN036 OVC042 22/21 A3008 RMK AO2 LTG DSNT E AND S P0003 T02230213
KNRB 
40nm SE 
052352Z 19007KT 10SM TS SCT028 BKN044CB OVC100 24/24 A3005 RMK AO2 RAE38 SLP176 OCNL LTGICCCCG OHD TS OHD MOV NE T1 SET P0032 60069 T02440244 51012 $
TAF
KJAX 
25nm SE 
051845Z 0519/0618 19006KT P6SM SHRA VCTS SCT018CB OVC030 TEMPO 0520/0522 VRB15G25KT 3SM TSRA BR BKN015CB OVC025 FM052200 16006KT 4SM SHRA BR VCTS SCT012CB OVC020 FM060000 13004KT P6SM -RA SCT025 BKN030 OVC050 FM060600 VRB03KT P6SM SCT018 BKN025
NOTAMs
Click for the latest NOTAMs
NOTAMs are issued by the DoD/FAA and will open in a separate window not controlled by AirNav.

 

 
 

Would you like to see your business listed on this page?

 If your business provides an interesting product or service to pilots, flight crews, aircraft, or users of the Davis Field Airport, you should consider listing it here.  To start the listing process, click on the button below
 
Add a business
 

Other Pages about Davis Field Airport

Update a link
 
Copyright © AirNav, LLC. All rights reserved. Privacy Policy  Contact